Location: Newark
(33.6333°S, 78.8500°W)
Time: 06:59:27
(UTC+00:00)

Courier 1B - Pass Details

Date: 23 September 2019
Orbit: 962 x 1209 km, 28.3° (Epoch: 18 October)

Event Time Altitude Azimuth Distance (km) Brightness Sun altitude
Rises 03:14:08 0° 270° (W) 3,881 11.1 -47.1°
Enters shadow 03:16:44 - 279° (W) 3,064 10.4 -47.5°
Reaches altitude 10° 03:17:22 10° 281° (WNW) 2,879 - -47.6°
Maximum altitude 03:23:05 27° 336° (NNW) 1,833 - -48.4°
Drops below altitude 10° 03:28:33 10° 32° (NNE) 2,739 - -49.1°
Sets 03:31:33 0° 44° (NE) 3,660 - -49.5°
